Printer-friendly version

IAU Minor Planet Center

Minor Planet Center

(41268) 1999 XO64

Orbital Elements

The following orbital elements are taken from MPO 97287
 (41268) 1999 XO64
Epoch 2007 Oct. 27.0 TT = JDT 2454400.5                 MPC
M 206.72987              (2000.0)            P               Q
n   0.08187643     Peri.   34.28702     -0.31757264     -0.90875209
a   5.2524683      Node    75.54920     +0.79524203     -0.41077481
e   0.1319609      Incl.   16.23741     +0.51646659     +0.07371355
P  12.0            H   12.1           G   0.15           U   1
From 55 observations at 4 oppositions, 1998-2002, mean residual 0".66.
An explanation of the orbital elements is available.

These orbital elements are also available in forms suitable for loading into a number of popular planetarium-type software programs.


Ephemeris

The following ephemeris is at intervals of five days. A daily ephemeris covering the same time interval is also available.

Personalized ephemerides for this (and other) objects may be generated using the Minor Planet & Comet Ephemeris Service.

Date    TT    R. A. (2000) Decl.     Delta      r     Elong.  Phase     V
2009 10 26    00 14.01   -18 33.7    4.586    5.379   139.3     6.9    19.6
2009 10 31    00 12.15   -18 30.3    4.630    5.374   134.6     7.6    19.6
2009 11 05    00 10.53   -18 24.2    4.680    5.369   129.8     8.2    19.7
2009 11 10    00 09.17   -18 15.5    4.734    5.364   125.0     8.7    19.7
2009 11 15    00 08.08   -18 04.3    4.793    5.359   120.2     9.2    19.8
2009 11 20    00 07.29   -17 50.8    4.855    5.354   115.4     9.6    19.8
2009 11 25    00 06.81   -17 34.9    4.921    5.350   110.7     9.9    19.8
2009 11 30    00 06.63   -17 17.0    4.988    5.345   106.0    10.2    19.9
2009 12 05    00 06.75   -16 57.2    5.058    5.340   101.3    10.4    19.9
2009 12 10    00 07.17   -16 35.6    5.130    5.335    96.7    10.6    20.0
2009 12 15    00 07.89   -16 12.4    5.202    5.330    92.1    10.6    20.0
2009 12 20    00 08.90   -15 47.7    5.275    5.325    87.6    10.6    20.0
2009 12 25    00 10.19   -15 21.7    5.347    5.320    83.1    10.6    20.0
2009 12 30    00 11.74   -14 54.5    5.419    5.315    78.7    10.5    20.1
2010 01 04    00 13.55   -14 26.4    5.489    5.310    74.4    10.3    20.1
2010 01 09    00 15.59   -13 57.3    5.558    5.305    70.1    10.0    20.1
2010 01 14    00 17.86   -13 27.4    5.626    5.300    65.9     9.8    20.1
2010 01 19    00 20.34   -12 56.9    5.690    5.295    61.7     9.4    20.1
2010 01 24    00 23.01   -12 25.8    5.752    5.290    57.6     9.0    20.1
2010 01 29    00 25.87   -11 54.2    5.811    5.285    53.5     8.6    20.1
2010 02 03    00 28.90   -11 22.4    5.867    5.280    49.5     8.2    20.1
2010 02 08    00 32.08   -10 50.2    5.919    5.275    45.6     7.7    20.1
2010 02 13    00 35.41   -10 17.9    5.967    5.270    41.7     7.2    20.1
2010 02 18    00 38.86   -09 45.6    6.010    5.265    37.9     6.6    20.1
2010 02 23    00 42.44   -09 13.2    6.050    5.260    34.1     6.1    20.1

2010 05 14    01 46.87   -01 33.3    6.020    5.179    30.9     5.7    20.0
2010 05 19    01 50.85   -01 11.3    5.977    5.174    34.3     6.3    20.0
2010 05 24    01 54.78   -00 50.4    5.931    5.169    37.9     6.9    20.0
2010 05 29    01 58.62   -00 30.7    5.880    5.163    41.4     7.5    20.1
2010 06 03    02 02.39   -00 12.2    5.825    5.158    45.0     8.0    20.1
2010 06 08    02 06.06   +00 05.1    5.766    5.153    48.7     8.5    20.1
2010 06 13    02 09.63   +00 21.1    5.704    5.148    52.4     9.0    20.0
2010 06 18    02 13.07   +00 35.7    5.639    5.143    56.2     9.4    20.0
2010 06 23    02 16.39   +00 48.9    5.571    5.138    59.9     9.9    20.0
2010 06 28    02 19.55   +01 00.8    5.500    5.133    63.8    10.2    20.0
2010 07 03    02 22.56   +01 11.2    5.427    5.128    67.6    10.6    20.0
2010 07 08    02 25.40   +01 20.1    5.352    5.123    71.6    10.9    20.0
2010 07 13    02 28.06   +01 27.6    5.275    5.117    75.6    11.1    19.9
2010 07 18    02 30.51   +01 33.5    5.197    5.112    79.6    11.3    19.9
2010 07 23    02 32.74   +01 37.9    5.117    5.107    83.7    11.4    19.9
2010 07 28    02 34.74   +01 40.8    5.038    5.102    87.9    11.5    19.9
2010 08 02    02 36.50   +01 42.1    4.957    5.097    92.1    11.5    19.8
2010 08 07    02 38.00   +01 42.0    4.877    5.092    96.4    11.4    19.8
2010 08 12    02 39.22   +01 40.4    4.798    5.087   100.8    11.3    19.7
2010 08 17    02 40.16   +01 37.3    4.720    5.082   105.3    11.1    19.7
2010 08 22    02 40.79   +01 32.8    4.644    5.077   109.8    10.8    19.6
2010 08 27    02 41.12   +01 27.1    4.570    5.071   114.4    10.5    19.6
2010 09 01    02 41.13   +01 20.1    4.498    5.066   119.1    10.0    19.5
2010 09 06    02 40.83   +01 12.0    4.430    5.061   123.8     9.5    19.5
2010 09 11    02 40.20   +01 02.9    4.366    5.056   128.7     8.9    19.4
2010 09 16    02 39.25   +00 53.0    4.306    5.051   133.5     8.3    19.4
2010 09 21    02 38.00   +00 42.6    4.251    5.046   138.4     7.6    19.3
2010 09 26    02 36.45   +00 31.7    4.201    5.041   143.3     6.8    19.2
2010 10 01    02 34.63   +00 20.6    4.157    5.036   148.2     6.0    19.2
2010 10 06    02 32.56   +00 09.6    4.120    5.031   153.0     5.2    19.1
2010 10 11    02 30.27   -00 01.1    4.089    5.026   157.5     4.4    19.1
2010 10 16    02 27.79   -00 11.2    4.065    5.021   161.5     3.6    19.0
2010 10 21    02 25.18   -00 20.4    4.049    5.016   164.6     3.0    18.9
2010 10 26    02 22.48   -00 28.5    4.040    5.011   166.1     2.7    18.9
2010 10 31    02 19.73   -00 35.2    4.038    5.006   165.5     2.9    18.9
2010 11 05    02 16.97   -00 40.3    4.044    5.001   162.9     3.3    19.0
2010 11 10    02 14.27   -00 43.6    4.058    4.996   159.1     4.1    19.0
2010 11 15    02 11.68   -00 44.9    4.079    4.991   154.6     4.9    19.1
2010 11 20    02 09.23   -00 44.2    4.107    4.986   149.8     5.7    19.1
2010 11 25    02 06.97   -00 41.3    4.141    4.981   144.8     6.6    19.2
2010 11 30    02 04.94   -00 36.3    4.182    4.976   139.7     7.4    19.2

Valid HTML 4.01!